AB6OR Weather Reports


Display with metric or nautical units.
time (UTC)temp
F
wind
direction
speed
MPH
gust
MPH
rain 1hr
in
rain 24hr
in
rain mn
in
humidity
%
barometer
mb
20260507051605 65 0.0 0.0 0.00 0.00 0.00 77 1015.0
20260507050124 65 0.0 0.0 0.00 0.00 0.00 77 1014.8
20260507045009 65 0.0 0.0 0.00 0.00 0.00 77 1014.9
20260507044106 65 0.0 0.0 0.00 0.00 0.00 77 1014.9
20260507043048 65 0.0 0.0 0.00 0.00 0.00 77 1014.8
20260507042106 66 0.0 0.0 0.00 0.00 0.00 77 1014.8
20260507041206 66 0.0 0.0 0.00 0.00 0.00 76 1014.7
20260507040206 66 0.0 0.0 0.00 0.00 0.00 75 1014.6
20260507035306 66 0.0 0.0 0.00 0.00 0.00 74 1014.4
20260507034406 67 0.0 2.0 0.00 0.00 0.00 73 1014.4
20260507032926 67 0.0 0.0 0.00 0.00 0.00 73 1014.3
20260507032038 67 0.0 2.0 0.00 0.00 0.00 73 1014.2
20260507031149 68 0.0 0.0 0.00 0.00 0.00 71 1014.0
20260507030226 68 0.0 0.0 0.00 0.00 0.00 71 1014.0
20260507024839 68 0.0 0.0 0.00 0.00 0.00 69 1014.0
20260507024031 69 0.0 0.0 0.00 0.00 0.00 67 1013.9
20260507023007 69 0.0 0.0 0.00 0.00 0.00 66 1013.6
20260507022106 70 0.0 1.0 0.00 0.00 0.00 63 1013.7
20260507021104 71 0.0 2.0 0.00 0.00 0.00 60 1013.5
20260507015707 73 0.0 0.0 0.00 0.00 0.00 58 1013.4
20260507014806 73 0.0 1.0 0.00 0.00 0.00 56 1013.6
20260507013905 74 0.0 2.0 0.00 0.00 0.00 56 1013.5
20260507012924 74 0.0 0.0 0.00 0.00 0.00 56 1013.4
20260507011606 75 0.0 2.0 0.00 0.00 0.00 54 1013.3
20260507010706 76 0.0 2.0 0.00 0.00 0.00 54 1013.2
20260507005726 76 0.0 0.0 0.00 0.00 0.00 54 1013.1
20260507004837 76 135 1.0 4.0 0.00 0.00 0.00 53 1013.1
20260507003948 77 0.0 3.0 0.00 0.00 0.00 52 1013.0
20260507002527 76 0.0 3.0 0.00 0.00 0.00 52 1013.0
20260507001640 76 0.0 2.0 0.00 0.00 0.00 52 1012.9
20260507000605 77 0.0 0.0 0.00 0.00 0.00 52 1013.1
20260506235706 77 0.0 0.0 0.00 0.00 0.00 50 1013.0
20260506234804 78 0.0 2.0 0.00 0.00 0.00 49 1013.1
20260506233905 78 0.0 3.0 0.00 0.00 0.00 48 1013.1
20260506232438 78 0.0 2.0 0.00 0.00 0.00 47 1013.0
20260506231550 78 0.0 4.0 0.00 0.00 0.00 46 1013.1
20260506230604 78 0.0 2.0 0.00 0.00 0.00 44 1013.2
20260506225243 78 0.0 2.0 0.00 0.00 0.00 44 1013.2
20260506224350 78 0.0 4.0 0.00 0.00 0.00 44 1013.2
20260506223406 78 0.0 2.0 0.00 0.00 0.00 44 1013.4
20260506222505 78 0.0 1.0 0.00 0.00 0.00 44 1013.6
20260506221233 78 0.0 4.0 0.00 0.00 0.00 45 1013.7
20260506220207 78 0.0 2.0 0.00 0.00 0.00 45 1013.7
20260506215306 78 225 1.0 4.0 0.00 0.00 0.00 45 1013.9
20260506214206 78 0.0 2.0 0.00 0.00 0.00 48 1013.9
20260506213305 78 0.0 2.0 0.00 0.00 0.00 49 1013.9
20260506212346 77 0.0 3.0 0.00 0.00 0.00 50 1014.2
20260506211325 77 0.0 2.0 0.00 0.00 0.00 51 1014.3
20260506210007 77 0.0 2.0 0.00 0.00 0.00 50 1014.5
20260506205108 78 270 2.0 8.0 0.00 0.00 0.00 50 1014.6
20260506204125 77 315 2.0 6.0 0.00 0.00 0.00 51 1014.3
20260506203236 76 0.0 2.0 0.00 0.00 0.00 52 1014.4
20260506202349 77 180 1.0 4.0 0.00 0.00 0.00 53 1014.7
20260506200926 76 0.0 0.0 0.00 0.00 0.00 52 1014.8
20260506200037 76 0.0 3.0 0.00 0.00 0.00 53 1015.0
20260506195150 76 0.0 0.0 0.00 0.00 0.00 52 1015.1
20260506193727 77 0.0 1.0 0.00 0.00 0.00 52 1015.2
20260506192858 76 0.0 4.0 0.00 0.00 0.00 53 1015.1
20260506191951 76 0.0 4.0 0.00 0.00 0.00 51 1015.3
20260506191028 75 0.0 1.0 0.00 0.00 0.00 53 1015.3
20260506185638 76 270 2.0 4.0 0.00 0.00 0.00 50 1015.7
20260506184757 75 45 1.0 4.0 0.00 0.00 0.00 54 1015.7
20260506183805 74 270 1.0 3.0 0.00 0.00 0.00 53 1016.1
20260506182906 73 0.0 0.0 0.00 0.00 0.00 54 1015.8
20260506182004 73 0.0 0.0 0.00 0.00 0.00 53 1016.0
20260506180632 73 0.0 2.0 0.00 0.00 0.00 53 1016.0
20260506175556 73 0.0 0.0 0.00 0.00 0.00 53 1016.2
20260506174647 73 0.0 2.0 0.00 0.00 0.00 57 1016.1
20260506173705 71 0.0 0.0 0.00 0.00 0.00 54 1016.3
20260506172806 70 270 1.0 2.0 0.00 0.00 0.00 55 1016.2
20260506171415 70 0.0 0.0 0.00 0.00 0.00 57 1016.2
20260506170438 69 0.0 2.0 0.00 0.00 0.00 60 1016.1
20260506165550 69 0.0 0.0 0.00 0.00 0.00 63 1016.2
20260506164607 68 0.0 0.0 0.00 0.00 0.00 63 1016.2
20260506163701 68 0.0 0.0 0.00 0.00 0.00 66 1016.2
20260506162704 68 0.0 1.0 0.00 0.00 0.00 66 1016.3
20260506161704 67 0.0 0.0 0.00 0.00 0.00 67 1016.2
20260506160306 67 0.0 1.0 0.00 0.00 0.00 69 1016.3
20260506155330 67 0.0 0.0 0.00 0.00 0.00 69 1016.2
20260506154459 66 0.0 0.0 0.00 0.00 0.00 70 1016.3
20260506153549 65 0.0 0.0 0.00 0.00 0.00 72 1016.4
20260506152605 64 0.0 0.0 0.00 0.00 0.00 72 1016.3
20260506151207 63 0.0 0.0 0.00 0.00 0.00 75 1016.3
20260506150308 62 0.0 0.0 0.00 0.00 0.00 77 1016.3
20260506145306 60 0.0 0.0 0.00 0.00 0.00 77 1016.3
20260506144405 58 0.0 0.0 0.00 0.00 0.00 79 1016.3
20260506143504 57 0.0 0.0 0.00 0.00 0.00 81 1016.3
20260506142106 56 0.0 0.0 0.00 0.00 0.00 82 1016.2
20260506141207 55 0.0 0.0 0.00 0.00 0.00 82 1016.2
20260506140305 55 0.0 0.0 0.00 0.00 0.00 83 1016.2
20260506135326 54 0.0 0.0 0.00 0.00 0.00 83 1016.2
20260506134439 53 0.0 0.0 0.00 0.00 0.00 83 1016.1
20260506133028 53 0.0 0.0 0.00 0.00 0.00 83 1015.8
20260506132106 53 0.0 0.0 0.00 0.00 0.00 83 1015.7
20260506131205 53 0.0 0.0 0.00 0.00 0.00 83 1015.4
20260506130325 53 0.0 0.0 0.00 0.00 0.00 84 1015.4
20260506124929 53 0.0 0.0 0.00 0.00 0.00 84 1015.5
20260506124005 53 0.0 0.0 0.00 0.00 0.00 84 1015.3
20260506123107 53 0.0 0.0 0.00 0.00 0.00 84 1015.4
20260506122126 54 0.0 0.0 0.00 0.00 0.00 83 1015.3
20260506120828 54 0.0 0.0 0.00 0.00 0.00 84 1015.2
20260506115904 54 0.0 0.0 0.00 0.00 0.00 84 1015.1
20260506114926 54 0.0 0.0 0.00 0.00 0.00 85 1015.1
20260506114037 54 0.0 0.0 0.00 0.00 0.00 85 1015.2
20260506113150 54 0.0 1.0 0.00 0.00 0.00 85 1015.2
20260506111727 54 0.0 0.0 0.00 0.00 0.00 86 1015.0
20260506110838 54 0.0 0.0 0.00 0.00 0.00 86 1015.2
20260506105952 54 0.0 0.0 0.00 0.00 0.00 87 1015.1
20260506105004 54 0.0 0.0 0.00 0.00 0.00 87 1015.2
20260506104124 55 0.0 0.0 0.00 0.00 0.00 87 1015.1
20260506102708 55 0.0 0.0 0.00 0.00 0.00 88 1015.2
20260506101727 55 0.0 0.0 0.00 0.00 0.00 88 1015.0
20260506100807 56 0.0 0.0 0.00 0.00 0.00 88 1015.0
20260506095806 56 0.0 0.0 0.00 0.00 0.00 88 1015.1
20260506094905 56 0.0 0.0 0.00 0.00 0.00 88 1015.2
20260506093553 56 0.0 0.0 0.00 0.00 0.00 89 1015.2
20260506092606 56 0.0 0.0 0.00 0.00 0.00 89 1015.2
20260506091705 56 0.0 0.0 0.00 0.00 0.00 89 1015.2
20260506090805 56 0.0 0.0 0.00 0.00 0.00 89 1015.2
20260506085904 56 0.0 0.0 0.00 0.00 0.00 90 1015.3
20260506084513 57 0.0 0.0 0.00 0.00 0.00 90 1015.3
20260506083606 57 0.0 0.0 0.00 0.00 0.00 90 1015.5
20260506082704 57 0.0 0.0 0.00 0.00 0.00 89 1015.4
20260506081704 57 0.0 0.0 0.00 0.00 0.00 89 1015.4
20260506080411 58 0.0 0.0 0.00 0.00 0.00 88 1015.5
20260506073526 58 0.0 0.0 0.00 0.00 0.00 88 1015.5
20260506072526 59 0.0 0.0 0.00 0.00 0.00 87 1015.6
20260506071406 59 0.0 0.0 0.00 0.00 0.00 87 1015.6
20260506070504 59 0.0 0.0 0.00 0.00 0.00 87 1015.6
20260506062306 60 0.0 0.0 0.00 0.00 0.00 85 1015.0
20260506061326 60 0.0 1.0 0.00 0.00 0.00 85 1015.2